Time,TemperatureF,DewpointF,PressureIn,WindDirection,WindDirectionDegrees,WindSpeedMPH,WindSpeedGustMPH,Humidity,HourlyPrecipIn,Conditions,Clouds,dailyrainin,SoftwareType,DateUTC
2013-03-24 00:00:00,40.6,23.9,29.95,NE,45,1.0,2.0,51,0.00,,,0.00,meteohub,2013-03-24 04:00:00,
2013-03-24 00:05:00,40.6,23.9,29.96,NE,45,1.0,2.0,51,0.00,,,0.00,meteohub,2013-03-24 04:05:00,
2013-03-24 00:10:00,41.4,23.2,29.94,South,180,2.0,3.0,48,0.00,,,0.00,meteohub,2013-03-24 04:10:00,
2013-03-24 00:15:00,41.7,23.5,29.95,East,90,1.0,3.0,48,0.00,,,0.00,meteohub,2013-03-24 04:15:00,
2013-03-24 00:20:00,41.5,23.4,29.95,SW,225,2.0,3.0,48,0.00,,,0.00,meteohub,2013-03-24 04:20:00,
2013-03-24 00:25:00,41.0,23.7,29.95,SW,225,2.0,3.0,50,0.00,,,0.00,meteohub,2013-03-24 04:25:00,
2013-03-24 00:30:00,40.1,23.9,29.95,NW,315,2.0,2.0,52,0.00,,,0.00,meteohub,2013-03-24 04:30:00,
2013-03-24 00:35:00,40.1,23.0,29.95,NE,45,4.0,4.0,50,0.00,,,0.00,meteohub,2013-03-24 04:35:00,
2013-03-24 00:40:00,41.0,21.7,29.95,North,0,4.0,5.0,46,0.00,,,0.00,meteohub,2013-03-24 04:40:00,
2013-03-24 00:45:00,42.3,21.9,29.95,NW,315,4.0,5.0,44,0.00,,,0.00,meteohub,2013-03-24 04:45:00,
2013-03-24 00:50:00,43.2,21.0,29.94,North,0,7.0,8.0,41,0.00,,,0.00,meteohub,2013-03-24 04:50:00,
2013-03-24 00:55:00,43.7,19.0,29.94,North,0,4.0,9.0,37,0.00,,,0.00,meteohub,2013-03-24 04:55:00,
2013-03-24 01:00:00,43.9,18.7,29.94,North,0,2.0,9.0,36,0.00,,,0.00,meteohub,2013-03-24 05:00:00,
2013-03-24 01:05:00,43.5,19.0,29.94,South,180,2.0,7.0,37,0.00,,,0.00,meteohub,2013-03-24 05:05:00,
2013-03-24 01:10:00,43.0,19.8,29.94,NW,315,1.0,6.0,39,0.00,,,0.00,meteohub,2013-03-24 05:10:00,
2013-03-24 01:15:00,42.3,20.3,29.93,SE,135,1.0,4.0,41,0.00,,,0.00,meteohub,2013-03-24 05:15:00,
2013-03-24 01:20:00,41.4,20.5,29.93,East,90,2.0,2.0,43,0.00,,,0.00,meteohub,2013-03-24 05:20:00,
2013-03-24 01:25:00,40.8,20.7,29.93,SW,225,2.0,2.0,44,0.00,,,0.00,meteohub,2013-03-24 05:25:00,
2013-03-24 01:30:00,40.3,20.7,29.94,South,180,2.0,2.0,45,0.00,,,0.00,meteohub,2013-03-24 05:30:00,
2013-03-24 01:35:00,39.9,20.8,29.94,SW,225,2.0,2.0,46,0.00,,,0.00,meteohub,2013-03-24 05:35:00,
2013-03-24 01:40:00,39.4,20.8,29.94,SW,225,2.0,3.0,47,0.00,,,0.00,meteohub,2013-03-24 05:40:00,
2013-03-24 01:45:00,39.0,21.0,29.94,North,0,2.0,3.0,48,0.00,,,0.00,meteohub,2013-03-24 05:45:00,
2013-03-24 01:50:00,38.7,21.6,29.94,South,180,2.0,3.0,50,0.00,,,0.00,meteohub,2013-03-24 05:50:00,
2013-03-24 01:55:00,37.9,21.4,29.94,SE,135,2.0,3.0,51,0.00,,,0.00,meteohub,2013-03-24 05:55:00,
2013-03-24 02:00:00,37.4,21.4,29.94,West,270,2.0,3.0,52,0.00,,,0.00,meteohub,2013-03-24 06:00:00,
2013-03-24 02:05:00,37.4,21.4,29.94,West,270,2.0,3.0,52,0.00,,,0.00,meteohub,2013-03-24 06:05:00,
2013-03-24 02:11:00,36.5,19.2,29.94,SW,225,2.0,2.0,49,0.00,,,0.00,meteohub,2013-03-24 06:11:00,
2013-03-24 02:16:00,36.3,19.4,29.94,South,180,1.0,2.0,50,0.00,,,0.00,meteohub,2013-03-24 06:16:00,
2013-03-24 02:21:00,36.5,19.2,29.94,South,180,2.0,2.0,49,0.00,,,0.00,meteohub,2013-03-24 06:21:00,
2013-03-24 02:26:00,36.9,19.0,29.94,West,270,2.0,2.0,48,0.00,,,0.00,meteohub,2013-03-24 06:26:00,
2013-03-24 02:31:00,36.9,19.4,29.94,SW,225,4.0,4.0,49,0.00,,,0.00,meteohub,2013-03-24 06:31:00,
2013-03-24 02:36:00,37.4,21.4,29.95,NW,315,2.0,4.0,52,0.00,,,0.00,meteohub,2013-03-24 06:36:00,
2013-03-24 02:41:00,37.4,22.3,29.95,South,180,4.0,4.0,54,0.00,,,0.00,meteohub,2013-03-24 06:41:00,
2013-03-24 02:46:00,37.4,22.6,29.95,SE,135,2.0,4.0,55,0.00,,,0.00,meteohub,2013-03-24 06:46:00,
2013-03-24 02:51:00,37.9,23.2,29.95,SW,225,2.0,4.0,55,0.00,,,0.00,meteohub,2013-03-24 06:51:00,
2013-03-24 02:56:00,38.3,23.5,29.95,South,180,3.0,4.0,55,0.00,,,0.00,meteohub,2013-03-24 06:56:00,
2013-03-24 03:01:00,37.9,23.7,29.95,SW,225,2.0,4.0,56,0.00,,,0.00,meteohub,2013-03-24 07:01:00,
2013-03-24 03:06:00,37.8,23.9,29.96,South,180,4.0,4.0,57,0.00,,,0.00,meteohub,2013-03-24 07:06:00,
2013-03-24 03:11:00,37.8,23.5,29.96,SW,225,2.0,4.0,56,0.00,,,0.00,meteohub,2013-03-24 07:11:00,
2013-03-24 03:16:00,37.9,23.7,29.97,South,180,3.0,4.0,56,0.00,,,0.00,meteohub,2013-03-24 07:16:00,
2013-03-24 03:21:00,38.1,23.9,29.98,NE,45,2.0,4.0,56,0.00,,,0.00,meteohub,2013-03-24 07:21:00,
2013-03-24 03:26:00,38.1,24.3,29.98,NE,45,2.0,4.0,57,0.00,,,0.00,meteohub,2013-03-24 07:26:00,
2013-03-24 03:31:00,37.9,24.1,29.97,South,180,2.0,4.0,57,0.00,,,0.00,meteohub,2013-03-24 07:31:00,
2013-03-24 03:37:00,38.3,23.9,29.97,North,0,4.0,4.0,56,0.00,,,0.00,meteohub,2013-03-24 07:37:00,
2013-03-24 03:42:00,40.1,23.4,29.98,West,270,2.0,8.0,51,0.00,,,0.00,meteohub,2013-03-24 07:42:00,
2013-03-24 03:47:00,40.1,24.3,29.98,East,90,2.0,8.0,53,0.00,,,0.00,meteohub,2013-03-24 07:47:00,
2013-03-24 03:52:00,39.9,23.7,29.98,South,180,2.0,8.0,52,0.00,,,0.00,meteohub,2013-03-24 07:52:00,
2013-03-24 03:57:00,39.9,23.2,29.97,South,180,1.0,5.0,51,0.00,,,0.00,meteohub,2013-03-24 07:57:00,
2013-03-24 04:02:00,39.9,23.2,29.96,SW,225,2.0,4.0,51,0.00,,,0.00,meteohub,2013-03-24 08:02:00,
2013-03-24 04:07:00,39.9,23.2,29.96,SW,225,2.0,4.0,51,0.00,,,0.00,meteohub,2013-03-24 08:07:00,
2013-03-24 04:12:00,41.4,21.6,29.96,NW,315,11.0,11.0,45,0.00,,,0.00,meteohub,2013-03-24 08:12:00,
2013-03-24 04:17:00,42.1,21.7,29.95,NW,315,3.0,11.0,44,0.00,,,0.00,meteohub,2013-03-24 08:17:00,
2013-03-24 04:22:00,42.3,21.4,29.95,North,0,8.0,11.0,43,0.00,,,0.00,meteohub,2013-03-24 08:22:00,
2013-03-24 04:27:00,42.6,21.7,29.95,WNW,293,8.0,11.0,43,0.00,,,0.00,meteohub,2013-03-24 08:27:00,
2013-03-24 04:32:00,42.6,21.7,29.94,North,0,8.0,9.0,43,0.00,,,0.00,meteohub,2013-03-24 08:32:00,
2013-03-24 04:37:00,42.6,21.7,29.94,North,0,13.0,13.0,43,0.00,,,0.00,meteohub,2013-03-24 08:37:00,
2013-03-24 04:42:00,42.6,21.7,29.94,North,0,7.0,13.0,43,0.00,,,0.00,meteohub,2013-03-24 08:42:00,
2013-03-24 04:47:00,42.4,21.6,29.94,WNW,293,8.0,13.0,43,0.00,,,0.00,meteohub,2013-03-24 08:47:00,
2013-03-24 04:52:00,42.4,21.6,29.94,North,0,5.0,13.0,43,0.00,,,0.00,meteohub,2013-03-24 08:52:00,
2013-03-24 04:57:00,42.3,21.9,29.94,NW,315,3.0,12.0,44,0.00,,,0.00,meteohub,2013-03-24 08:57:00,
2013-03-24 05:02:00,42.1,21.7,29.92,NW,315,6.0,8.0,44,0.00,,,0.00,meteohub,2013-03-24 09:02:00,
2013-03-24 05:08:00,42.1,21.7,29.92,SE,135,6.0,10.0,44,0.00,,,0.00,meteohub,2013-03-24 09:08:00,
2013-03-24 05:13:00,41.9,22.1,29.91,North,0,7.0,10.0,45,0.00,,,0.00,meteohub,2013-03-24 09:13:00,
2013-03-24 05:18:00,41.9,22.1,29.92,North,0,4.0,9.0,45,0.00,,,0.00,meteohub,2013-03-24 09:18:00,
2013-03-24 05:23:00,41.7,21.9,29.92,South,180,4.0,7.0,45,0.00,,,0.00,meteohub,2013-03-24 09:23:00,
2013-03-24 05:28:00,41.7,21.9,29.92,NW,315,4.0,7.0,45,0.00,,,0.00,meteohub,2013-03-24 09:28:00,
2013-03-24 05:33:00,41.7,21.9,29.91,NW,315,4.0,7.0,45,0.00,,,0.00,meteohub,2013-03-24 09:33:00,
2013-03-24 05:38:00,41.7,21.9,29.91,North,0,5.0,8.0,45,0.00,,,0.00,meteohub,2013-03-24 09:38:00,
2013-03-24 05:43:00,41.5,21.7,29.91,North,0,6.0,8.0,45,0.00,,,0.00,meteohub,2013-03-24 09:43:00,
2013-03-24 05:48:00,41.5,21.7,29.91,NW,315,5.0,11.0,45,0.00,,,0.00,meteohub,2013-03-24 09:48:00,
2013-03-24 05:53:00,41.5,21.7,29.91,North,0,4.0,11.0,45,0.00,,,0.00,meteohub,2013-03-24 09:53:00,
2013-03-24 05:58:00,41.4,21.6,29.91,North,0,4.0,12.0,45,0.00,,,0.00,meteohub,2013-03-24 09:58:00,
2013-03-24 06:03:00,41.4,21.6,29.92,NW,315,4.0,12.0,45,0.00,,,0.00,meteohub,2013-03-24 10:03:00,
2013-03-24 06:08:00,41.4,21.6,29.91,NW,315,3.0,7.0,45,0.00,,,0.00,meteohub,2013-03-24 10:08:00,
2013-03-24 06:13:00,41.2,21.4,29.91,NNW,338,4.0,5.0,45,0.00,,,0.00,meteohub,2013-03-24 10:13:00,
2013-03-24 06:18:00,41.2,21.4,29.92,NW,315,4.0,11.0,45,0.00,,,0.00,meteohub,2013-03-24 10:18:00,
2013-03-24 06:23:00,41.2,21.4,29.91,NW,315,6.0,11.0,45,0.00,,,0.00,meteohub,2013-03-24 10:23:00,
2013-03-24 06:28:00,41.2,21.4,29.91,NE,45,7.0,11.0,45,0.00,,,0.00,meteohub,2013-03-24 10:28:00,
2013-03-24 06:33:00,41.2,21.4,29.91,North,0,4.0,8.0,45,0.00,,,0.00,meteohub,2013-03-24 10:33:00,
2013-03-24 06:38:00,41.0,21.7,29.91,NNW,338,7.0,8.0,46,0.00,,,0.00,meteohub,2013-03-24 10:38:00,
2013-03-24 06:43:00,41.0,21.7,29.92,North,0,6.0,8.0,46,0.00,,,0.00,meteohub,2013-03-24 10:43:00,
2013-03-24 06:48:00,41.2,21.9,29.92,NNW,338,5.0,8.0,46,0.00,,,0.00,meteohub,2013-03-24 10:48:00,
2013-03-24 06:53:00,41.2,21.4,29.92,WNW,293,8.0,8.0,45,0.00,,,0.00,meteohub,2013-03-24 10:53:00,
2013-03-24 06:58:00,41.2,21.4,29.92,NNW,338,4.0,12.0,45,0.00,,,0.00,meteohub,2013-03-24 10:58:00,
2013-03-24 07:03:00,41.2,21.4,29.92,NW,315,7.0,12.0,45,0.00,,,0.00,meteohub,2013-03-24 11:03:00,
2013-03-24 07:08:00,41.2,21.9,29.93,NE,45,4.0,12.0,46,0.00,,,0.00,meteohub,2013-03-24 11:08:00,
2013-03-24 07:13:00,41.2,21.9,29.92,North,0,6.0,9.0,46,0.00,,,0.00,meteohub,2013-03-24 11:13:00,
2013-03-24 07:18:00,41.2,21.9,29.92,East,90,4.0,11.0,46,0.00,,,0.00,meteohub,2013-03-24 11:18:00,
2013-03-24 07:23:00,41.0,21.7,29.92,NE,45,5.0,11.0,46,0.00,,,0.00,meteohub,2013-03-24 11:23:00,
2013-03-24 07:28:00,41.0,21.7,29.91,NW,315,9.0,11.0,46,0.00,,,0.00,meteohub,2013-03-24 11:28:00,
2013-03-24 07:33:00,41.0,21.7,29.91,North,0,4.0,10.0,46,0.00,,,0.00,meteohub,2013-03-24 11:33:00,
2013-03-24 07:38:00,41.0,21.7,29.91,NNW,338,7.0,10.0,46,0.00,,,0.00,meteohub,2013-03-24 11:38:00,
2013-03-24 07:43:00,41.0,21.7,29.91,SE,135,6.0,9.0,46,0.00,,,0.00,meteohub,2013-03-24 11:43:00,
2013-03-24 07:48:00,41.0,21.7,29.90,NW,315,11.0,13.0,46,0.00,,,0.00,meteohub,2013-03-24 11:48:00,
2013-03-24 07:53:00,41.0,21.7,29.90,WNW,293,4.0,13.0,46,0.00,,,0.00,meteohub,2013-03-24 11:53:00,
2013-03-24 07:58:00,41.0,21.7,29.90,NW,315,5.0,13.0,46,0.00,,,0.00,meteohub,2013-03-24 11:58:00,
2013-03-24 08:03:00,41.0,22.3,29.89,North,0,5.0,11.0,47,0.00,,,0.00,meteohub,2013-03-24 12:03:00,
2013-03-24 08:08:00,40.8,22.6,29.89,NW,315,10.0,10.0,48,0.00,,,0.00,meteohub,2013-03-24 12:08:00,
2013-03-24 08:14:00,40.8,22.6,29.89,North,0,5.0,10.0,48,0.00,,,0.00,meteohub,2013-03-24 12:14:00,
2013-03-24 08:19:00,40.8,22.6,29.89,NW,315,7.0,10.0,48,0.00,,,0.00,meteohub,2013-03-24 12:19:00,
2013-03-24 08:24:00,40.8,23.2,29.89,North,0,4.0,10.0,49,0.00,,,0.00,meteohub,2013-03-24 12:24:00,
2013-03-24 08:29:00,40.8,22.6,29.89,North,0,3.0,8.0,48,0.00,,,0.00,meteohub,2013-03-24 12:29:00,
2013-03-24 08:34:00,40.6,23.0,29.89,North,0,4.0,8.0,49,0.00,,,0.00,meteohub,2013-03-24 12:34:00,
2013-03-24 08:39:00,40.6,23.0,29.89,NW,315,4.0,7.0,49,0.00,,,0.00,meteohub,2013-03-24 12:39:00,
2013-03-24 08:44:00,40.6,23.0,29.89,North,0,4.0,5.0,49,0.00,,,0.00,meteohub,2013-03-24 12:44:00,
2013-03-24 08:49:00,40.6,23.0,29.90,SE,135,1.0,5.0,49,0.00,,,0.00,meteohub,2013-03-24 12:49:00,
2013-03-24 08:54:00,40.6,23.5,29.90,South,180,2.0,5.0,50,0.00,,,0.00,meteohub,2013-03-24 12:54:00,
2013-03-24 08:59:00,40.5,23.4,29.90,NE,45,1.0,5.0,50,0.00,,,0.00,meteohub,2013-03-24 12:59:00,
2013-03-24 09:04:00,40.5,23.7,29.90,North,0,5.0,5.0,51,0.00,,,0.00,meteohub,2013-03-24 13:04:00,
2013-03-24 09:09:00,40.5,23.7,29.89,WNW,293,2.0,4.0,51,0.00,,,0.00,meteohub,2013-03-24 13:09:00,
2013-03-24 09:14:00,40.3,23.5,29.89,North,0,3.0,5.0,51,0.00,,,0.00,meteohub,2013-03-24 13:14:00,
2013-03-24 09:19:00,40.1,23.9,29.89,NNW,338,6.0,6.0,52,0.00,,,0.00,meteohub,2013-03-24 13:19:00,
2013-03-24 09:24:00,39.9,24.3,29.89,NW,315,2.0,4.0,53,0.00,,,0.00,meteohub,2013-03-24 13:24:00,
2013-03-24 09:29:00,39.7,24.4,29.89,North,0,4.0,6.0,54,0.00,,,0.00,meteohub,2013-03-24 13:29:00,
2013-03-24 09:34:00,39.6,24.8,29.89,NW,315,7.0,7.0,55,0.00,,,0.00,meteohub,2013-03-24 13:34:00,
2013-03-24 09:39:00,39.4,24.6,29.89,NE,45,4.0,7.0,55,0.00,,,0.00,meteohub,2013-03-24 13:39:00,
2013-03-24 09:44:00,39.2,24.8,29.89,North,0,5.0,8.0,56,0.00,,,0.00,meteohub,2013-03-24 13:44:00,
2013-03-24 09:49:00,38.8,25.7,29.90,NNW,338,7.0,8.0,59,0.00,,,0.00,meteohub,2013-03-24 13:49:00,
2013-03-24 09:54:00,38.7,25.5,29.90,North,0,6.0,8.0,59,0.00,,,0.00,meteohub,2013-03-24 13:54:00,
2013-03-24 09:59:00,38.5,26.2,29.90,NE,45,8.0,8.0,61,0.00,,,0.00,meteohub,2013-03-24 13:59:00,
2013-03-24 10:04:00,38.3,26.8,29.90,NE,45,4.0,8.0,63,0.00,,,0.00,meteohub,2013-03-24 14:04:00,
2013-03-24 10:09:00,38.3,27.1,29.90,North,0,3.0,8.0,64,0.00,,,0.00,meteohub,2013-03-24 14:09:00,
2013-03-24 10:14:00,37.9,27.1,29.90,NE,45,3.0,8.0,65,0.00,,,0.00,meteohub,2013-03-24 14:14:00,
2013-03-24 10:19:00,37.8,28.2,29.90,North,0,9.0,9.0,68,0.00,,,0.00,meteohub,2013-03-24 14:19:00,
2013-03-24 10:24:00,36.7,27.1,29.89,NW,315,5.0,9.0,68,0.00,,,0.00,meteohub,2013-03-24 14:24:00,
2013-03-24 10:29:00,35.8,27.3,29.88,West,270,4.0,9.0,71,0.00,,,0.00,meteohub,2013-03-24 14:29:00,
2013-03-24 10:34:00,35.1,27.7,29.88,NW,315,4.0,9.0,74,0.00,,,0.00,meteohub,2013-03-24 14:34:00,
2013-03-24 10:39:00,34.5,28.0,29.87,NW,315,6.0,7.0,77,0.00,,,0.00,meteohub,2013-03-24 14:39:00,
2013-03-24 10:45:00,34.2,28.6,29.86,North,0,4.0,6.0,80,0.00,,,0.00,meteohub,2013-03-24 14:45:00,
2013-03-24 10:50:00,34.0,29.1,29.86,North,0,2.0,6.0,82,0.00,,,0.00,meteohub,2013-03-24 14:50:00,
2013-03-24 10:55:00,33.8,29.1,29.86,North,0,1.0,6.0,83,0.00,,,0.00,meteohub,2013-03-24 14:55:00,
2013-03-24 11:00:00,33.8,29.1,29.86,SSE,158,3.0,5.0,83,0.00,,,0.00,meteohub,2013-03-24 15:00:00,
2013-03-24 11:05:00,33.8,29.5,29.86,NW,315,4.0,5.0,84,0.00,,,0.00,meteohub,2013-03-24 15:05:00,
2013-03-24 11:10:00,33.8,29.5,29.87,NW,315,2.0,4.0,84,0.00,,,0.00,meteohub,2013-03-24 15:10:00,
2013-03-24 11:15:00,33.8,29.8,29.87,NW,315,3.0,4.0,85,0.00,,,0.00,meteohub,2013-03-24 15:15:00,
2013-03-24 11:20:00,34.0,30.0,29.87,East,90,4.0,5.0,85,0.00,,,0.00,meteohub,2013-03-24 15:20:00,
2013-03-24 11:25:00,34.0,30.0,29.87,NW,315,1.0,7.0,85,0.00,,,0.00,meteohub,2013-03-24 15:25:00,
2013-03-24 11:30:00,34.0,30.0,29.86,South,180,1.0,7.0,85,0.00,,,0.00,meteohub,2013-03-24 15:30:00,
2013-03-24 11:35:00,34.0,30.0,29.86,SE,135,0.0,7.0,85,0.00,,,0.00,meteohub,2013-03-24 15:35:00,
2013-03-24 11:40:00,34.0,30.0,29.85,SE,135,0.0,3.0,85,0.00,,,0.00,meteohub,2013-03-24 15:40:00,
2013-03-24 11:45:00,34.0,30.2,29.86,North,0,0.0,2.0,86,0.00,,,0.00,meteohub,2013-03-24 15:45:00,
2013-03-24 11:50:00,34.0,30.2,29.84,NE,45,0.0,2.0,86,0.00,,,0.00,meteohub,2013-03-24 15:50:00,
2013-03-24 11:55:00,33.8,30.4,29.84,North,0,0.0,2.0,87,0.00,,,0.00,meteohub,2013-03-24 15:55:00,
2013-03-24 12:00:00,34.0,30.7,29.83,North,0,0.0,0.0,88,0.00,,,0.00,meteohub,2013-03-24 16:00:00,
2013-03-24 12:05:00,34.0,31.1,29.83,NW,315,0.0,0.0,89,0.00,,,0.00,meteohub,2013-03-24 16:05:00,
2013-03-24 12:10:00,34.0,31.1,29.83,North,0,0.0,0.0,89,0.00,,,0.00,meteohub,2013-03-24 16:10:00,
2013-03-24 12:15:00,34.2,31.5,29.83,North,0,2.0,0.0,90,0.00,,,0.00,meteohub,2013-03-24 16:15:00,
2013-03-24 12:20:00,34.2,31.5,29.82,NE,45,0.0,2.0,90,0.00,,,0.00,meteohub,2013-03-24 16:20:00,
2013-03-24 12:25:00,34.2,31.5,29.82,North,0,0.0,2.0,90,0.00,,,0.00,meteohub,2013-03-24 16:25:00,
2013-03-24 12:30:00,34.3,31.6,29.82,North,0,0.0,1.0,90,0.00,,,0.00,meteohub,2013-03-24 16:30:00,
2013-03-24 12:35:00,34.3,31.6,29.82,North,0,0.0,2.0,90,0.00,,,0.00,meteohub,2013-03-24 16:35:00,
2013-03-24 12:40:00,34.2,31.5,29.81,North,0,0.0,2.0,90,0.00,,,0.00,meteohub,2013-03-24 16:40:00,
2013-03-24 12:45:00,34.3,31.6,29.81,North,0,2.0,2.0,90,0.00,,,0.00,meteohub,2013-03-24 16:45:00,
2013-03-24 12:50:00,34.3,31.6,29.81,North,0,0.0,2.0,90,0.00,,,0.00,meteohub,2013-03-24 16:50:00,
2013-03-24 12:55:00,34.3,31.6,29.80,North,0,0.0,2.0,90,0.00,,,0.00,meteohub,2013-03-24 16:55:00,
2013-03-24 13:00:00,34.5,31.8,29.79,NW,315,3.0,3.0,90,0.00,,,0.00,meteohub,2013-03-24 17:00:00,
2013-03-24 13:05:00,34.3,31.6,29.79,North,0,2.0,3.0,90,0.00,,,0.00,meteohub,2013-03-24 17:05:00,
2013-03-24 13:10:00,34.5,31.8,29.79,North,0,2.0,3.0,90,0.00,,,0.00,meteohub,2013-03-24 17:10:00,
2013-03-24 13:15:00,34.3,31.6,29.79,North,0,0.0,3.0,90,0.00,,,0.00,meteohub,2013-03-24 17:15:00,
2013-03-24 13:20:00,34.3,32.0,29.80,NW,315,4.0,4.0,91,0.00,,,0.00,meteohub,2013-03-24 17:20:00,
2013-03-24 13:25:00,34.5,32.2,29.79,North,0,2.0,4.0,91,0.00,,,0.00,meteohub,2013-03-24 17:25:00,
2013-03-24 13:30:00,34.5,32.2,29.79,North,0,2.0,4.0,91,0.00,,,0.00,meteohub,2013-03-24 17:30:00,
2013-03-24 13:35:00,34.5,32.2,29.78,North,0,2.0,4.0,91,0.00,,,0.00,meteohub,2013-03-24 17:35:00,
2013-03-24 13:40:00,34.2,31.8,29.78,North,0,2.0,4.0,91,0.00,,,0.00,meteohub,2013-03-24 17:40:00,
2013-03-24 13:45:00,34.2,31.8,29.78,North,0,0.0,4.0,91,0.00,,,0.00,meteohub,2013-03-24 17:45:00,
2013-03-24 13:51:00,34.0,31.8,29.79,North,0,2.0,4.0,92,0.00,,,0.00,meteohub,2013-03-24 17:51:00,
2013-03-24 13:56:00,34.0,31.8,29.77,North,0,2.0,3.0,92,0.00,,,0.00,meteohub,2013-03-24 17:56:00,
2013-03-24 14:01:00,34.0,31.8,29.77,North,0,2.0,2.0,92,0.00,,,0.00,meteohub,2013-03-24 18:01:00,
2013-03-24 14:08:00,34.0,31.8,29.77,North,0,0.0,2.0,92,0.00,,,0.00,meteohub,2013-03-24 18:08:00,
2013-03-24 14:13:00,34.0,31.8,29.77,North,0,2.0,2.0,92,0.00,,,0.00,meteohub,2013-03-24 18:13:00,
2013-03-24 14:18:00,34.0,31.8,29.76,North,0,2.0,2.0,92,0.00,,,0.00,meteohub,2013-03-24 18:18:00,
2013-03-24 14:23:00,34.0,31.8,29.76,North,0,2.0,2.0,92,0.00,,,0.00,meteohub,2013-03-24 18:23:00,
2013-03-24 14:28:00,33.8,31.6,29.75,North,0,0.0,2.0,92,0.00,,,0.00,meteohub,2013-03-24 18:28:00,
2013-03-24 14:33:00,33.8,31.6,29.75,North,0,0.0,2.0,92,0.00,,,0.00,meteohub,2013-03-24 18:33:00,
2013-03-24 14:38:00,33.8,31.6,29.75,North,0,0.0,2.0,92,0.00,,,0.00,meteohub,2013-03-24 18:38:00,
2013-03-24 14:43:00,33.8,31.6,29.75,North,0,2.0,0.0,92,0.00,,,0.00,meteohub,2013-03-24 18:43:00,
2013-03-24 14:48:00,34.0,32.2,29.75,NNW,338,1.0,2.0,93,0.00,,,0.00,meteohub,2013-03-24 18:48:00,
2013-03-24 14:53:00,34.0,32.2,29.74,North,0,3.0,3.0,93,0.00,,,0.00,meteohub,2013-03-24 18:53:00,
2013-03-24 14:58:00,33.8,32.0,29.75,NNW,338,0.0,4.0,93,0.00,,,0.00,meteohub,2013-03-24 18:58:00,
2013-03-24 15:03:00,33.8,31.6,29.75,West,270,0.0,4.0,92,0.00,,,0.00,meteohub,2013-03-24 19:03:00,
2013-03-24 15:08:00,33.6,31.8,29.75,South,180,0.0,4.0,93,0.00,,,0.00,meteohub,2013-03-24 19:08:00,
2013-03-24 15:13:00,33.6,31.8,29.76,South,180,0.0,2.0,93,0.00,,,0.00,meteohub,2013-03-24 19:13:00,
2013-03-24 15:18:00,33.4,31.6,29.76,SW,225,0.0,0.0,93,0.00,,,0.00,meteohub,2013-03-24 19:18:00,
2013-03-24 15:23:00,33.3,31.5,29.75,NE,45,0.0,0.0,93,0.00,,,0.00,meteohub,2013-03-24 19:23:00,
2013-03-24 15:28:00,33.3,31.5,29.75,SW,225,0.0,0.0,93,0.00,,,0.00,meteohub,2013-03-24 19:28:00,
2013-03-24 15:33:00,33.3,31.5,29.75,SW,225,0.0,0.0,93,0.00,,,0.00,meteohub,2013-03-24 19:33:00,
2013-03-24 15:38:00,33.1,31.3,29.75,North,0,0.0,0.0,93,0.00,,,0.00,meteohub,2013-03-24 19:38:00,
2013-03-24 15:43:00,33.1,31.5,29.75,North,0,0.0,0.0,94,0.00,,,0.00,meteohub,2013-03-24 19:43:00,
2013-03-24 15:48:00,33.1,31.5,29.74,North,0,0.0,0.0,94,0.00,,,0.00,meteohub,2013-03-24 19:48:00,
2013-03-24 15:53:00,32.9,31.3,29.74,North,0,0.0,0.0,94,0.00,,,0.00,meteohub,2013-03-24 19:53:00,
2013-03-24 15:58:00,32.9,31.3,29.73,North,0,0.0,0.0,94,0.00,,,0.00,meteohub,2013-03-24 19:58:00,
2013-03-24 16:03:00,32.9,31.3,29.72,North,0,0.0,0.0,94,0.00,,,0.00,meteohub,2013-03-24 20:03:00,
2013-03-24 16:08:00,32.9,31.3,29.71,North,0,0.0,0.0,94,0.00,,,0.00,meteohub,2013-03-24 20:08:00,
2013-03-24 16:13:00,32.9,31.3,29.71,North,0,0.0,0.0,94,0.00,,,0.00,meteohub,2013-03-24 20:13:00,
2013-03-24 16:18:00,32.9,31.8,29.71,NW,315,0.0,0.0,96,0.00,,,0.00,meteohub,2013-03-24 20:18:00,
2013-03-24 16:23:00,32.9,31.8,29.71,NW,315,0.0,0.0,96,0.00,,,0.00,meteohub,2013-03-24 20:23:00,
2013-03-24 16:28:00,32.9,31.8,29.70,NW,315,0.0,0.0,96,0.00,,,0.00,meteohub,2013-03-24 20:28:00,
2013-03-24 16:33:00,32.9,31.8,29.70,NW,315,0.0,0.0,96,0.00,,,0.00,meteohub,2013-03-24 20:33:00,
2013-03-24 16:46:00,33.4,32.7,29.69,NW,315,0.0,-999.0,97,0.00,,,0.00,meteohub,2013-03-24 20:46:00,
2013-03-24 16:51:00,33.6,32.9,29.68,NW,315,0.0,0.0,97,0.00,,,0.00,meteohub,2013-03-24 20:51:00,
2013-03-24 16:56:00,33.6,32.9,29.68,NW,315,0.0,0.0,97,0.00,,,0.00,meteohub,2013-03-24 20:56:00,
2013-03-24 17:01:00,33.6,32.9,29.68,NW,315,0.0,0.0,97,0.00,,,0.00,meteohub,2013-03-24 21:01:00,